SAS66J ENTC-EKVG

Flight info

Callsign SAS66J
Flight time 2h 53m
Altitude 38000
Route GILGU DCT NORVA DCT 65N000E/M075F380 DCT ROBUR
Aircraft E195/M-SDE3GILORVW/S

Departure

Time 2026-04-27 10:26
Airport Tromsø Airport (ENTC)

Arrival

Time 2026-04-27 13:19
Airport Vágar Airport (EKVG)
Time Latitude Longitude Altitude Speed Heading
2026-04-27 10:11 69.67897 18.90868 35 ft 0 kts 283°
2026-04-27 10:19 69.67895 18.90887 35 ft 4 kts 283°
2026-04-27 10:20 69.67888 18.90962 36 ft 4 kts 287°
2026-04-27 10:20 69.67879 18.91035 35 ft 4 kts 292°
2026-04-27 10:20 69.67868 18.91104 34 ft 4 kts 303°
2026-04-27 10:20 69.67852 18.91161 35 ft 4 kts 336°
2026-04-27 10:21 69.67839 18.91171 36 ft 0 kts 13°
2026-04-27 10:23 69.67865 18.91188 35 ft 8 kts 13°
2026-04-27 10:23 69.67953 18.91246 34 ft 16 kts 13°
2026-04-27 10:23 69.68073 18.91323 31 ft 19 kts 13°
2026-04-27 10:23 69.68207 18.91413 28 ft 20 kts 15°
2026-04-27 10:24 69.68352 18.91498 27 ft 22 kts
2026-04-27 10:24 69.68506 18.91536 24 ft 22 kts 13°
2026-04-27 10:24 69.68651 18.91634 23 ft 16 kts 13°
2026-04-27 10:24 69.68766 18.91727 19 ft 14 kts 38°
2026-04-27 10:25 69.68767 18.92000 19 ft 15 kts 102°
2026-04-27 10:25 69.68692 18.92126 21 ft 19 kts 193°
2026-04-27 10:25 69.68423 18.91946 27 ft 69 kts 192°
2026-04-27 10:25 69.67752 18.91495 38 ft 127 kts 193°
2026-04-27 10:26 69.66735 18.90870 158 ft 165 kts 189°
2026-04-27 10:26 69.65490 18.90645 457 ft 196 kts 196°
2026-04-27 10:26 69.64436 18.88559 764 ft 176 kts 244°
2026-04-27 10:26 69.64178 18.86479 990 ft 163 kts 256°
2026-04-27 10:27 69.63849 18.83484 1329 ft 153 kts 254°
2026-04-27 10:27 69.63395 18.79697 1731 ft 148 kts 256°
2026-04-27 10:27 69.63161 18.77798 1938 ft 150 kts 251°
2026-04-27 10:27 69.62779 18.75050 2263 ft 147 kts 253°
2026-04-27 10:28 69.62405 18.72306 2586 ft 147 kts 253°
2026-04-27 10:28 69.62290 18.69462 2872 ft 146 kts 295°
2026-04-27 10:28 69.62778 18.66989 3278 ft 143 kts 300°
2026-04-27 10:28 69.62974 18.64242 3621 ft 147 kts 266°
2026-04-27 10:29 69.62698 18.61419 3991 ft 147 kts 257°
2026-04-27 10:29 69.62411 18.58599 4334 ft 148 kts 257°
2026-04-27 10:29 69.62049 18.55752 4586 ft 156 kts 253°
2026-04-27 10:29 69.61652 18.52792 4942 ft 162 kts 252°
2026-04-27 10:30 69.61199 18.49792 5362 ft 163 kts 250°
2026-04-27 10:30 69.60725 18.46853 5733 ft 161 kts 251°
2026-04-27 10:30 69.60283 18.43918 6111 ft 162 kts 251°
2026-04-27 10:30 69.59800 18.40997 6506 ft 162 kts 251°
2026-04-27 10:31 69.59311 18.38110 6857 ft 159 kts 249°
2026-04-27 10:31 69.58836 18.35296 7168 ft 155 kts 251°
2026-04-27 10:31 69.58368 18.32557 7392 ft 152 kts 249°
2026-04-27 10:31 69.57903 18.29816 7522 ft 155 kts 252°
2026-04-27 10:32 69.57439 18.27021 7711 ft 154 kts 250°
2026-04-27 10:32 69.56971 18.24275 7884 ft 153 kts 251°
2026-04-27 10:32 69.56513 18.21551 8011 ft 155 kts 250°
2026-04-27 10:32 69.56036 18.18750 8168 ft 154 kts 250°
2026-04-27 10:33 69.55570 18.15991 8323 ft 154 kts 251°
2026-04-27 10:33 69.55108 18.13249 8492 ft 156 kts 251°
2026-04-27 10:33 69.54631 18.10479 8674 ft 154 kts 251°
2026-04-27 10:33 69.54160 18.07707 8820 ft 155 kts 251°
2026-04-27 10:34 69.53683 18.04927 8972 ft 156 kts 250°
2026-04-27 10:34 69.53206 18.02148 9131 ft 156 kts 251°
2026-04-27 10:34 69.52731 17.99370 9288 ft 156 kts 250°
2026-04-27 10:34 69.52251 17.96584 9450 ft 156 kts 251°
2026-04-27 10:35 69.51774 17.93800 9609 ft 156 kts 251°
2026-04-27 10:35 69.51293 17.91012 9777 ft 156 kts 251°
2026-04-27 10:35 69.50817 17.88261 9937 ft 157 kts 251°
2026-04-27 10:35 69.50336 17.85472 10106 ft 157 kts 251°
2026-04-27 10:36 69.49853 17.82682 10243 ft 156 kts 250°
2026-04-27 10:36 69.49370 17.79890 10374 ft 158 kts 251°
2026-04-27 10:36 69.48883 17.77073 10536 ft 159 kts 250°
2026-04-27 10:36 69.48392 17.74258 10740 ft 158 kts 251°
2026-04-27 10:37 69.47904 17.71449 10850 ft 159 kts 251°
2026-04-27 10:37 69.47409 17.68589 10955 ft 161 kts 250°
2026-04-27 10:37 69.46912 17.65743 11129 ft 160 kts 251°
2026-04-27 10:37 69.46418 17.62890 11272 ft 161 kts 251°
2026-04-27 10:38 69.45920 17.60015 11425 ft 162 kts 250°
2026-04-27 10:38 69.45434 17.57183 11661 ft 160 kts 248°
2026-04-27 10:38 69.44922 17.54352 11832 ft 162 kts 249°
2026-04-27 10:38 69.44418 17.51458 11989 ft 163 kts 249°
2026-04-27 10:39 69.43909 17.48593 12164 ft 162 kts 249°
2026-04-27 10:39 69.43401 17.45709 12281 ft 164 kts 249°
2026-04-27 10:39 69.42890 17.42792 12442 ft 164 kts 249°
2026-04-27 10:39 69.42378 17.39899 12624 ft 164 kts 249°
2026-04-27 10:40 69.41866 17.36992 12770 ft 165 kts 249°
2026-04-27 10:40 69.41348 17.34052 12949 ft 166 kts 249°
2026-04-27 10:40 69.40827 17.31134 13141 ft 165 kts 249°
2026-04-27 10:40 69.40310 17.28198 13279 ft 167 kts 249°
2026-04-27 10:41 69.39786 17.25245 13462 ft 167 kts 249°
2026-04-27 10:41 69.39260 17.22303 13633 ft 167 kts 249°
2026-04-27 10:41 69.38740 17.19387 13743 ft 169 kts 249°
2026-04-27 10:41 69.38213 17.16420 13876 ft 169 kts 250°
2026-04-27 10:42 69.37687 17.13420 14046 ft 169 kts 249°
2026-04-27 10:42 69.37154 17.10445 14221 ft 169 kts 249°
2026-04-27 10:42 69.36626 17.07470 14337 ft 170 kts 249°
2026-04-27 10:42 69.36087 17.04448 14436 ft 173 kts 250°
2026-04-27 10:43 69.35540 17.01398 14620 ft 173 kts 249°
2026-04-27 10:43 69.34992 16.98380 14793 ft 172 kts 249°
2026-04-27 10:43 69.34444 16.95341 14915 ft 174 kts 250°
2026-04-27 10:43 69.33896 16.92280 15081 ft 174 kts 249°
2026-04-27 10:44 69.33345 16.89238 15232 ft 174 kts 250°
2026-04-27 10:44 69.32796 16.86169 15364 ft 176 kts 250°
2026-04-27 10:44 69.32233 16.83096 15518 ft 175 kts 249°
2026-04-27 10:44 69.31675 16.80030 15677 ft 175 kts 249°
2026-04-27 10:45 69.31112 16.76955 15791 ft 177 kts 249°
2026-04-27 10:45 69.30544 16.73854 15930 ft 177 kts 250°
2026-04-27 10:45 69.29979 16.70766 16087 ft 177 kts 250°
2026-04-27 10:45 69.29421 16.67705 16206 ft 178 kts 250°
2026-04-27 10:46 69.28855 16.64587 16335 ft 178 kts 250°
2026-04-27 10:46 69.28289 16.61468 16475 ft 178 kts 249°
2026-04-27 10:46 69.27713 16.58346 16584 ft 180 kts 250°
2026-04-27 10:46 69.27139 16.55209 16725 ft 180 kts 250°
2026-04-27 10:47 69.26564 16.52079 16864 ft 180 kts 250°
2026-04-27 10:47 69.25988 16.48941 16969 ft 181 kts 250°
2026-04-27 10:47 69.25405 16.45780 17096 ft 181 kts 250°
2026-04-27 10:47 69.24825 16.42630 17233 ft 181 kts 250°
2026-04-27 10:48 69.24240 16.39464 17335 ft 182 kts 250°
2026-04-27 10:48 69.23660 16.36322 17468 ft 182 kts 250°
2026-04-27 10:48 69.23070 16.33164 17575 ft 182 kts 251°
2026-04-27 10:48 69.22485 16.30000 17708 ft 182 kts 252°
2026-04-27 10:49 69.21898 16.26854 17828 ft 182 kts 251°
2026-04-27 10:49 69.21310 16.23668 17925 ft 183 kts 252°
2026-04-27 10:49 69.20723 16.20481 18063 ft 183 kts 252°
2026-04-27 10:49 69.20133 16.17312 18181 ft 183 kts 251°
2026-04-27 10:50 69.19542 16.14118 18277 ft 184 kts 252°
2026-04-27 10:50 69.18951 16.10964 18404 ft 184 kts 251°
2026-04-27 10:50 69.18354 16.07783 18515 ft 184 kts 252°
2026-04-27 10:50 69.17759 16.04570 18599 ft 186 kts 251°
2026-04-27 10:51 69.17152 16.01367 18709 ft 185 kts 252°
2026-04-27 10:51 69.16553 15.98165 18811 ft 185 kts 252°
2026-04-27 10:51 69.15951 15.94952 18886 ft 187 kts 252°
2026-04-27 10:51 69.15341 15.91737 18989 ft 186 kts 252°
2026-04-27 10:52 69.14733 15.88521 19087 ft 186 kts 252°
2026-04-27 10:52 69.14119 15.85297 19153 ft 188 kts 252°
2026-04-27 10:52 69.13504 15.82065 19225 ft 188 kts 253°
2026-04-27 10:52 69.12889 15.78866 19304 ft 188 kts 255°
2026-04-27 10:53 69.12282 15.75609 19383 ft 188 kts 254°
2026-04-27 10:53 69.11048 15.69117 19556 ft 189 kts 255°
2026-04-27 10:53 69.10425 15.65847 19650 ft 190 kts 254°
2026-04-27 10:54 69.09803 15.62587 19747 ft 189 kts 255°
2026-04-27 10:54 69.09178 15.59327 19823 ft 190 kts 255°
2026-04-27 10:54 69.08558 15.56103 19898 ft 191 kts 255°
2026-04-27 10:54 69.07934 15.52833 19989 ft 190 kts 255°
2026-04-27 10:55 69.07306 15.49576 20063 ft 191 kts 255°
2026-04-27 10:55 69.06673 15.46299 20126 ft 191 kts 256°
2026-04-27 10:55 69.06041 15.43021 20212 ft 191 kts 255°
2026-04-27 10:55 69.05406 15.39763 20292 ft 191 kts 256°
2026-04-27 10:56 69.04771 15.36485 20352 ft 192 kts 256°
2026-04-27 10:56 69.04135 15.33203 20440 ft 192 kts 256°
2026-04-27 10:56 69.03493 15.29939 20528 ft 192 kts 256°
2026-04-27 10:56 69.02866 15.26706 20586 ft 193 kts 256°
2026-04-27 10:57 69.02218 15.23411 20655 ft 193 kts 256°
2026-04-27 10:57 69.01566 15.20134 20743 ft 192 kts 257°
2026-04-27 10:57 69.00929 15.16845 20811 ft 193 kts 257°
2026-04-27 10:57 69.00285 15.13551 20882 ft 194 kts 257°
2026-04-27 10:58 68.99645 15.10253 20998 ft 193 kts 257°
2026-04-27 10:58 68.98983 15.06985 21089 ft 193 kts 259°
2026-04-27 10:58 68.98339 15.03756 21221 ft 189 kts 261°
2026-04-27 10:58 68.97710 15.00504 21299 ft 192 kts 261°
2026-04-27 10:59 68.97067 14.97237 21381 ft 192 kts 261°
2026-04-27 10:59 68.96428 14.93988 21470 ft 191 kts 261°
2026-04-27 10:59 68.95787 14.90726 21527 ft 192 kts 261°
2026-04-27 11:00 68.94495 14.84241 21705 ft 192 kts 261°
2026-04-27 11:00 68.93844 14.80985 21771 ft 193 kts 262°
2026-04-27 11:00 68.93190 14.77709 21851 ft 193 kts 262°
2026-04-27 11:00 68.92547 14.74453 21938 ft 192 kts 262°
2026-04-27 11:01 68.91897 14.71191 21995 ft 194 kts 262°
2026-04-27 11:01 68.91240 14.67920 22062 ft 194 kts 262°
2026-04-27 11:01 68.90587 14.64649 22152 ft 193 kts 262°
2026-04-27 11:01 68.89922 14.61389 22190 ft 195 kts 262°
2026-04-27 11:02 68.89242 14.58145 22294 ft 193 kts 263°
2026-04-27 11:02 68.88589 14.54898 22375 ft 192 kts 264°
2026-04-27 11:02 68.87933 14.51636 22439 ft 194 kts 263°
2026-04-27 11:02 68.87279 14.48367 22530 ft 193 kts 264°
2026-04-27 11:03 68.86625 14.45124 22611 ft 193 kts 264°
2026-04-27 11:03 68.85965 14.41862 22664 ft 194 kts 264°
2026-04-27 11:03 68.85319 14.38631 22755 ft 194 kts 264°
2026-04-27 11:03 68.84655 14.35375 22863 ft 194 kts 264°
2026-04-27 11:04 68.84000 14.32113 22924 ft 194 kts 264°
2026-04-27 11:04 68.83336 14.28839 22982 ft 196 kts 264°
2026-04-27 11:04 68.82663 14.25576 23083 ft 195 kts 264°
2026-04-27 11:04 68.81995 14.22314 23149 ft 196 kts 264°
2026-04-27 11:05 68.81320 14.19033 23215 ft 196 kts 264°
2026-04-27 11:05 68.80643 14.15759 23304 ft 196 kts 264°
2026-04-27 11:05 68.79965 14.12487 23381 ft 195 kts 265°
2026-04-27 11:05 68.79301 14.09209 23444 ft 196 kts 265°
2026-04-27 11:06 68.78625 14.05932 23525 ft 196 kts 265°
2026-04-27 11:06 68.77942 14.02658 23604 ft 197 kts 264°
2026-04-27 11:06 68.77266 13.99421 23670 ft 197 kts 265°
2026-04-27 11:06 68.76573 13.96141 23743 ft 198 kts 264°
2026-04-27 11:07 68.75885 13.92868 23821 ft 197 kts 265°
2026-04-27 11:07 68.75203 13.89584 23870 ft 198 kts 264°
2026-04-27 11:07 68.74501 13.86302 23925 ft 197 kts 263°
2026-04-27 11:07 68.73816 13.83091 24042 ft 192 kts 265°
2026-04-27 11:08 68.73152 13.79856 24043 ft 196 kts 264°
2026-04-27 11:08 68.72472 13.76566 24079 ft 197 kts 265°
2026-04-27 11:08 68.71788 13.73324 24192 ft 195 kts 264°
2026-04-27 11:08 68.71105 13.70105 24241 ft 195 kts 265°
2026-04-27 11:09 68.70425 13.66843 24267 ft 198 kts 264°
2026-04-27 11:09 68.69728 13.63578 24352 ft 196 kts 264°
2026-04-27 11:09 68.69049 13.60346 24425 ft 195 kts 265°
2026-04-27 11:09 68.68374 13.57093 24449 ft 197 kts 264°
2026-04-27 11:10 68.67691 13.53863 24511 ft 198 kts 264°
2026-04-27 11:10 68.66994 13.50604 24596 ft 196 kts 264°
2026-04-27 11:10 68.66311 13.47349 24634 ft 197 kts 264°
2026-04-27 11:10 68.65614 13.44078 24631 ft 199 kts 263°
2026-04-27 11:11 68.64920 13.40828 24730 ft 196 kts 264°
2026-04-27 11:11 68.64230 13.37604 24777 ft 196 kts 264°
2026-04-27 11:11 68.63536 13.34347 24795 ft 199 kts 264°
2026-04-27 11:11 68.62840 13.31081 24873 ft 197 kts 264°
2026-04-27 11:12 68.62153 13.27846 24950 ft 196 kts 264°
2026-04-27 11:12 68.61465 13.24647 24983 ft 199 kts 264°
2026-04-27 11:12 68.60759 13.21388 25038 ft 199 kts 264°
2026-04-27 11:12 68.60061 13.18142 25114 ft 197 kts 264°
2026-04-27 11:13 68.59370 13.14897 25159 ft 197 kts 265°
2026-04-27 11:13 68.58679 13.11632 25188 ft 200 kts 264°
2026-04-27 11:13 68.57972 13.08368 25250 ft 199 kts 263°
2026-04-27 11:13 68.57260 13.05124 25302 ft 199 kts 263°
2026-04-27 11:14 68.56548 13.01869 25335 ft 200 kts 263°
2026-04-27 11:14 68.55841 12.98597 25379 ft 199 kts 264°
2026-04-27 11:14 68.55132 12.95343 25437 ft 199 kts 264°
2026-04-27 11:14 68.54423 12.92084 25476 ft 200 kts 263°
2026-04-27 11:15 68.53710 12.88818 25511 ft 201 kts 263°
2026-04-27 11:15 68.53229 12.86658 25551 ft 200 kts 263°
2026-04-27 11:15 68.52288 12.82338 25614 ft 199 kts 264°
2026-04-27 11:15 68.51582 12.79078 25638 ft 200 kts 263°
2026-04-27 11:16 68.51098 12.76868 25665 ft 200 kts 263°
2026-04-27 11:16 68.50381 12.73610 25710 ft 201 kts 263°
2026-04-27 11:16 68.49670 12.70386 25672 ft 200 kts 263°
2026-04-27 11:16 68.48974 12.67137 25746 ft 198 kts 262°
2026-04-27 11:17 68.48255 12.63934 25797 ft 198 kts 262°
2026-04-27 11:17 68.47534 12.60698 25778 ft 201 kts 261°
2026-04-27 11:17 68.46807 12.57452 25824 ft 200 kts 262°
2026-04-27 11:17 68.46101 12.54230 25891 ft 198 kts 262°
2026-04-27 11:18 68.45379 12.51015 25902 ft 199 kts 262°
2026-04-27 11:18 68.44668 12.47762 25910 ft 201 kts 261°
2026-04-27 11:18 68.43945 12.44522 25982 ft 200 kts 261°
2026-04-27 11:18 68.43232 12.41338 26008 ft 199 kts 261°
2026-04-27 11:19 68.42510 12.38103 26007 ft 200 kts 262°
2026-04-27 11:19 68.41791 12.34859 26041 ft 200 kts 261°
2026-04-27 11:19 68.41076 12.31637 26094 ft 199 kts 262°
2026-04-27 11:19 68.40354 12.28414 26067 ft 200 kts 261°
2026-04-27 11:20 68.39624 12.25178 26080 ft 202 kts 260°
2026-04-27 11:20 68.38896 12.21948 26137 ft 200 kts 260°
2026-04-27 11:20 68.38169 12.18738 26166 ft 200 kts 260°
2026-04-27 11:20 68.37441 12.15508 26166 ft 201 kts 260°
2026-04-27 11:21 68.36702 12.12275 26207 ft 201 kts 260°
2026-04-27 11:21 68.35975 12.09061 26241 ft 200 kts 260°
2026-04-27 11:21 68.35246 12.05848 26247 ft 201 kts 260°
2026-04-27 11:21 68.34510 12.02613 26260 ft 201 kts 261°
2026-04-27 11:22 68.33789 11.99386 26298 ft 200 kts 260°
2026-04-27 11:22 68.33052 11.96178 26322 ft 201 kts 260°
2026-04-27 11:22 68.32326 11.92997 26327 ft 201 kts 260°
2026-04-27 11:22 68.31587 11.89763 26352 ft 201 kts 260°
2026-04-27 11:23 68.30841 11.86560 26382 ft 201 kts 260°
2026-04-27 11:23 68.30105 11.83343 26393 ft 201 kts 260°
2026-04-27 11:23 68.29375 11.80113 26411 ft 202 kts 259°
2026-04-27 11:23 68.28631 11.76901 26438 ft 201 kts 260°
2026-04-27 11:24 68.27894 11.73690 26452 ft 201 kts 260°
2026-04-27 11:24 68.27152 11.70463 26469 ft 201 kts 260°
2026-04-27 11:24 68.26425 11.67292 26495 ft 201 kts 259°
2026-04-27 11:24 68.25678 11.64089 26516 ft 201 kts 260°
2026-04-27 11:25 68.24937 11.60878 26531 ft 202 kts 260°
2026-04-27 11:25 68.24196 11.57666 26552 ft 202 kts 259°
2026-04-27 11:25 68.23451 11.54469 26539 ft 200 kts 258°
2026-04-27 11:25 68.22714 11.51309 26611 ft 198 kts 258°
2026-04-27 11:26 68.21978 11.48162 26610 ft 199 kts 259°
2026-04-27 11:26 68.21248 11.44974 26587 ft 201 kts 258°
2026-04-27 11:26 68.20505 11.41839 26642 ft 199 kts 258°
2026-04-27 11:26 68.19770 11.38694 26678 ft 198 kts 258°
2026-04-27 11:27 68.19027 11.35541 26653 ft 201 kts 258°
2026-04-27 11:27 68.18279 11.32365 26670 ft 200 kts 259°
2026-04-27 11:27 68.17550 11.29208 26721 ft 199 kts 258°
2026-04-27 11:27 68.16815 11.26066 26713 ft 200 kts 258°
2026-04-27 11:28 68.16072 11.22898 26701 ft 200 kts 258°
2026-04-27 11:28 68.15335 11.19735 26733 ft 199 kts 258°
2026-04-27 11:28 68.14595 11.16594 26725 ft 199 kts 257°
2026-04-27 11:28 68.13857 11.13465 26735 ft 198 kts 258°
2026-04-27 11:29 68.13132 11.10320 26742 ft 199 kts 258°
2026-04-27 11:29 68.12397 11.07177 26778 ft 199 kts 258°
2026-04-27 11:29 68.11661 11.04042 26799 ft 199 kts 257°
2026-04-27 11:29 68.10921 11.00909 26797 ft 199 kts 258°
2026-04-27 11:30 68.10177 10.97774 26805 ft 199 kts 258°
2026-04-27 11:30 68.09429 10.94690 26829 ft 202 kts 253°
2026-04-27 11:30 68.08603 10.91620 26833 ft 202 kts 256°
2026-04-27 11:30 68.07825 10.88507 26843 ft 201 kts 256°
2026-04-27 11:31 68.07064 10.85392 26869 ft 199 kts 258°
2026-04-27 11:31 68.06329 10.82268 26880 ft 198 kts 258°
2026-04-27 11:31 68.05599 10.79128 26889 ft 198 kts 259°
2026-04-27 11:31 68.04885 10.75988 26903 ft 198 kts 258°
2026-04-27 11:32 68.04171 10.72849 26917 ft 197 kts 259°
2026-04-27 11:32 68.03466 10.69707 26930 ft 198 kts 259°
2026-04-27 11:32 68.02758 10.66565 26938 ft 197 kts 259°
2026-04-27 11:32 68.02056 10.63421 26955 ft 197 kts 259°
2026-04-27 11:33 68.01360 10.60319 26966 ft 197 kts 259°
2026-04-27 11:33 68.00660 10.57175 26971 ft 197 kts 259°
2026-04-27 11:33 67.99956 10.54035 26986 ft 197 kts 259°
2026-04-27 11:33 67.99258 10.50899 27002 ft 197 kts 259°
2026-04-27 11:34 67.98554 10.47763 27000 ft 197 kts 259°
2026-04-27 11:34 67.97853 10.44618 26989 ft 197 kts 259°
2026-04-27 11:34 67.97165 10.41531 27020 ft 195 kts 258°
2026-04-27 11:34 67.96468 10.38456 27056 ft 193 kts 258°
2026-04-27 11:35 67.95778 10.35354 27019 ft 196 kts 258°
2026-04-27 11:35 67.95074 10.32235 27026 ft 196 kts 258°
2026-04-27 11:35 67.94374 10.29136 27082 ft 194 kts 258°
2026-04-27 11:35 67.93679 10.26055 27077 ft 195 kts 258°
2026-04-27 11:36 67.92980 10.22945 27055 ft 196 kts 257°
2026-04-27 11:36 67.92276 10.19847 27100 ft 195 kts 258°
2026-04-27 11:36 67.91580 10.16767 27124 ft 194 kts 258°
2026-04-27 11:36 67.90882 10.13680 27106 ft 196 kts 258°
2026-04-27 11:37 67.90177 10.10576 27112 ft 196 kts 257°
2026-04-27 11:37 67.89482 10.07527 27143 ft 195 kts 258°
2026-04-27 11:37 67.88782 10.04451 27137 ft 195 kts 257°
2026-04-27 11:37 67.88079 10.01360 27107 ft 196 kts 257°
2026-04-27 11:38 67.87373 9.98281 27146 ft 195 kts 257°
2026-04-27 11:38 67.86669 9.95199 27156 ft 195 kts 257°
2026-04-27 11:38 67.85963 9.92110 27142 ft 196 kts 257°
2026-04-27 11:38 67.85256 9.89032 27159 ft 195 kts 257°
2026-04-27 11:39 67.84562 9.86008 27178 ft 194 kts 257°
2026-04-27 11:39 67.83858 9.82946 27178 ft 195 kts 257°
2026-04-27 11:39 67.83153 9.79874 27181 ft 195 kts 257°
2026-04-27 11:39 67.82445 9.76802 27203 ft 195 kts 257°
2026-04-27 11:40 67.81737 9.73738 27209 ft 195 kts 257°
2026-04-27 11:40 67.81031 9.70671 27207 ft 195 kts 257°
2026-04-27 11:40 67.80322 9.67606 27223 ft 195 kts 256°
2026-04-27 11:40 67.79610 9.64537 27246 ft 195 kts 257°
2026-04-27 11:41 67.78921 9.61508 27242 ft 195 kts 258°
2026-04-27 11:41 67.78231 9.58361 27182 ft 201 kts 257°
2026-04-27 11:41 67.77542 9.55116 27189 ft 204 kts 258°
2026-04-27 11:41 67.76946 9.51731 27239 ft 199 kts 269°
2026-04-27 11:42 67.76927 9.48444 27244 ft 167 kts 303°
2026-04-27 11:42 67.77394 9.45640 27327 ft 172 kts 297°
2026-04-27 11:42 67.77694 9.42489 27413 ft 181 kts 294°
2026-04-27 11:42 67.77999 9.39205 27493 ft 187 kts 294°
2026-04-27 11:43 67.78238 9.35705 27537 ft 201 kts 285°
2026-04-27 11:43 67.78227 9.31866 27628 ft 220 kts 271°
2026-04-27 11:43 67.77780 9.27791 27739 ft 241 kts 262°
2026-04-27 11:43 67.77153 9.23616 27851 ft 255 kts 258°
2026-04-27 11:44 67.76383 9.19236 27960 ft 271 kts 255°
2026-04-27 11:44 67.75496 9.14678 28059 ft 286 kts 253°
2026-04-27 11:44 67.74512 9.09930 28249 ft 297 kts 251°
2026-04-27 11:44 67.73471 9.05262 28937 ft 293 kts 251°
2026-04-27 11:45 67.72431 9.00699 29633 ft 287 kts 250°
2026-04-27 11:45 67.71732 8.97775 30105 ft 282 kts 250°
2026-04-27 11:45 67.70364 8.92075 30968 ft 268 kts 250°
2026-04-27 11:45 67.69365 8.88064 31549 ft 257 kts 250°
2026-04-27 11:46 67.68358 8.84080 31654 ft 263 kts 249°
2026-04-27 11:46 67.67353 8.80087 31890 ft 262 kts 250°
2026-04-27 11:46 67.66352 8.76081 32096 ft 263 kts 250°
2026-04-27 11:46 67.65344 8.72064 32278 ft 264 kts 250°
2026-04-27 11:47 67.64346 8.68065 32444 ft 266 kts 250°
2026-04-27 11:47 67.63313 8.63998 32596 ft 269 kts 249°
2026-04-27 11:47 67.62277 8.59870 32739 ft 272 kts 250°
2026-04-27 11:47 67.61238 8.55693 32877 ft 276 kts 249°
2026-04-27 11:48 67.60185 8.51452 32992 ft 279 kts 250°
2026-04-27 11:48 67.59128 8.47125 33123 ft 284 kts 249°
2026-04-27 11:48 67.58039 8.42733 33248 ft 290 kts 249°
2026-04-27 11:48 67.56921 8.38265 33353 ft 297 kts 248°
2026-04-27 11:49 67.55740 8.33750 33458 ft 303 kts 249°
2026-04-27 11:49 67.54591 8.29134 33561 ft 309 kts 248°
2026-04-27 11:49 67.53412 8.24359 33662 ft 316 kts 248°
2026-04-27 11:49 67.52195 8.19484 33750 ft 325 kts 247°
2026-04-27 11:50 67.50957 8.14722 34222 ft 304 kts 246°
2026-04-27 11:50 67.49791 8.10350 35022 ft 282 kts 247°
2026-04-27 11:50 67.48714 8.06348 35734 ft 257 kts 246°
2026-04-27 11:50 67.47682 8.02702 36054 ft 245 kts 246°
2026-04-27 11:51 67.46686 7.99079 35917 ft 245 kts 248°
2026-04-27 11:51 67.45740 7.95607 36186 ft 221 kts 245°
2026-04-27 11:51 67.44011 7.89833 35744 ft 213 kts 251°
2026-04-27 11:52 67.43095 7.86270 34694 ft 260 kts 249°
2026-04-27 11:52 67.42073 7.82108 34231 ft 280 kts 252°
2026-04-27 11:52 67.41061 7.77812 34445 ft 283 kts 249°
2026-04-27 11:52 67.39991 7.73499 34639 ft 284 kts 250°
2026-04-27 11:53 67.38913 7.69020 34600 ft 294 kts 249°
2026-04-27 11:53 67.37804 7.64630 35025 ft 287 kts 248°
2026-04-27 11:53 67.36739 7.60512 35610 ft 268 kts 247°
2026-04-27 11:53 67.35701 7.56753 36182 ft 245 kts 246°
2026-04-27 11:54 67.34720 7.53175 36164 ft 246 kts 246°
2026-04-27 11:54 67.33666 7.49517 35924 ft 254 kts 246°
2026-04-27 11:54 67.32665 7.45801 35900 ft 249 kts 249°
2026-04-27 11:54 67.31719 7.42060 35886 ft 248 kts 249°
2026-04-27 11:55 67.30760 7.38364 35866 ft 246 kts 248°
2026-04-27 11:55 67.29805 7.34708 35841 ft 244 kts 248°
2026-04-27 11:55 67.28856 7.31144 35787 ft 241 kts 248°
2026-04-27 11:55 67.27919 7.27573 35750 ft 239 kts 248°
2026-04-27 11:56 67.26983 7.24151 35610 ft 229 kts 247°
2026-04-27 11:56 67.26051 7.20755 35299 ft 233 kts 249°
2026-04-27 11:56 67.25125 7.17323 35141 ft 231 kts 249°
2026-04-27 11:56 67.24204 7.13948 35041 ft 229 kts 248°
2026-04-27 11:57 67.23287 7.10645 34930 ft 228 kts 248°
2026-04-27 11:57 67.22367 7.07338 34796 ft 225 kts 250°
2026-04-27 11:57 67.21483 7.04016 34662 ft 224 kts 250°
2026-04-27 11:57 67.20605 7.00702 34532 ft 223 kts 250°
2026-04-27 11:58 67.19721 6.97419 34397 ft 222 kts 250°
2026-04-27 11:58 67.18827 6.94169 34254 ft 223 kts 248°
2026-04-27 11:58 67.17948 6.90983 34257 ft 213 kts 250°
2026-04-27 11:58 67.17110 6.87991 34454 ft 195 kts 249°
2026-04-27 11:59 67.16308 6.85286 34388 ft 187 kts 251°
2026-04-27 11:59 67.15509 6.82471 33694 ft 208 kts 250°
2026-04-27 11:59 67.14613 6.79180 32892 ft 235 kts 250°
2026-04-27 11:59 67.13760 6.75702 32905 ft 232 kts 251°
2026-04-27 12:00 67.12875 6.72213 32949 ft 233 kts 249°
2026-04-27 12:00 67.11979 6.68738 32979 ft 232 kts 251°
2026-04-27 12:00 67.11115 6.65214 32975 ft 236 kts 249°
2026-04-27 12:00 67.10172 6.61715 32999 ft 240 kts 248°
2026-04-27 12:01 67.09220 6.58186 33026 ft 241 kts 249°
2026-04-27 12:01 67.08260 6.54621 33019 ft 245 kts 248°
2026-04-27 12:01 67.07287 6.51017 33057 ft 248 kts 247°
2026-04-27 12:01 67.06291 6.47358 33100 ft 251 kts 248°
2026-04-27 12:02 67.05297 6.43700 33147 ft 256 kts 247°
2026-04-27 12:02 67.04256 6.39947 33199 ft 261 kts 246°
2026-04-27 12:02 67.03207 6.36092 33260 ft 266 kts 246°
2026-04-27 12:02 67.02129 6.32161 33301 ft 272 kts 247°
2026-04-27 12:03 67.01046 6.28123 33347 ft 278 kts 246°
2026-04-27 12:03 66.99920 6.24005 33419 ft 286 kts 245°
2026-04-27 12:03 66.99170 6.21207 33461 ft 290 kts 246°
2026-04-27 12:03 66.98017 6.16884 33522 ft 299 kts 245°
2026-04-27 12:04 66.96824 6.12455 33588 ft 307 kts 245°
2026-04-27 12:04 66.95171 6.06409 33665 ft 320 kts 244°
2026-04-27 12:04 66.93873 6.01709 33726 ft 329 kts 244°
2026-04-27 12:05 66.91594 5.93541 33823 ft 345 kts 243°
2026-04-27 12:05 66.88718 5.83317 33928 ft 365 kts 243°
2026-04-27 12:06 66.85741 5.72488 34009 ft 383 kts 243°
2026-04-27 12:06 66.82580 5.61266 34126 ft 402 kts 242°
2026-04-27 12:07 66.79215 5.49549 34188 ft 419 kts 241°
2026-04-27 12:07 66.75706 5.37426 34259 ft 425 kts 241°
2026-04-27 12:07 66.73978 5.31425 34440 ft 425 kts 241°
2026-04-27 12:08 66.72244 5.25428 35014 ft 419 kts 240°
2026-04-27 12:08 66.70491 5.19590 35614 ft 413 kts 238°
2026-04-27 12:08 66.68739 5.13932 36226 ft 404 kts 239°
2026-04-27 12:08 66.67080 5.08309 36852 ft 395 kts 240°
2026-04-27 12:09 66.65454 5.02812 37498 ft 385 kts 240°
2026-04-27 12:09 66.63880 4.97473 38153 ft 374 kts 240°
2026-04-27 12:09 66.62323 4.92191 38277 ft 379 kts 240°
2026-04-27 12:10 66.59122 4.81566 38298 ft 379 kts 239°
2026-04-27 12:10 66.55918 4.70992 38348 ft 385 kts 240°
2026-04-27 12:11 66.52670 4.60044 38403 ft 397 kts 239°
2026-04-27 12:11 66.49302 4.48841 38429 ft 408 kts 238°
2026-04-27 12:12 66.45815 4.37341 38356 ft 421 kts 239°
2026-04-27 12:12 66.42168 4.25530 38316 ft 434 kts 238°
2026-04-27 12:13 66.38436 4.13387 38325 ft 447 kts 236°
2026-04-27 12:13 66.34642 4.00933 38318 ft 454 kts 240°
2026-04-27 12:14 66.30610 3.88699 38337 ft 461 kts 236°
2026-04-27 12:14 66.26882 3.75786 38308 ft 460 kts 239°
2026-04-27 12:15 66.22691 3.63577 38336 ft 463 kts 237°
2026-04-27 12:15 66.18973 3.50612 38317 ft 463 kts 238°
2026-04-27 12:16 66.14722 3.38555 38311 ft 463 kts 237°
2026-04-27 12:16 66.11037 3.25753 38317 ft 461 kts 238°
2026-04-27 12:17 66.06801 3.13738 38335 ft 462 kts 237°
2026-04-27 12:17 66.03072 3.00932 38321 ft 462 kts 237°
2026-04-27 12:18 65.98764 2.89085 38333 ft 462 kts 237°
2026-04-27 12:18 65.95047 2.76268 38308 ft 462 kts 237°
2026-04-27 12:19 65.90711 2.64509 38292 ft 464 kts 235°
2026-04-27 12:19 65.86960 2.51845 38326 ft 458 kts 239°
2026-04-27 12:20 65.82645 2.40150 38327 ft 463 kts 234°
2026-04-27 12:20 65.78857 2.27711 38304 ft 459 kts 240°
2026-04-27 12:21 65.74597 2.15956 38305 ft 465 kts 232°
2026-04-27 12:21 65.70706 2.03600 38298 ft 459 kts 240°
2026-04-27 12:22 65.66468 1.91850 38317 ft 466 kts 231°
2026-04-27 12:22 65.62493 1.79643 38307 ft 459 kts 240°
2026-04-27 12:23 65.58311 1.67851 38276 ft 467 kts 231°
2026-04-27 12:23 65.54252 1.55862 38305 ft 458 kts 239°
2026-04-27 12:24 65.50116 1.44060 38318 ft 466 kts 230°
2026-04-27 12:24 65.45994 1.32332 38317 ft 459 kts 239°
2026-04-27 12:25 65.41935 1.20387 38322 ft 467 kts 229°
2026-04-27 12:25 65.37653 1.08816 38313 ft 460 kts 239°
2026-04-27 12:26 65.33653 0.96807 38318 ft 467 kts 230°
2026-04-27 12:26 65.29288 0.85555 38284 ft 460 kts 238°
2026-04-27 12:27 65.25390 0.73442 38320 ft 465 kts 231°
2026-04-27 12:27 65.20876 0.62357 38304 ft 462 kts 237°
2026-04-27 12:28 65.17044 0.50141 38299 ft 464 kts 233°
2026-04-27 12:28 65.12474 0.39316 38301 ft 464 kts 234°
2026-04-27 12:29 65.08624 0.27126 38288 ft 462 kts 237°
2026-04-27 12:29 65.04043 0.16217 38296 ft 467 kts 231°
2026-04-27 12:30 65.00089 0.04374 38288 ft 460 kts 240°
2026-04-27 12:30 64.95670 -0.06740 38319 ft 467 kts 228°
2026-04-27 12:31 64.91505 -0.18220 38327 ft 457 kts 240°
2026-04-27 12:31 64.87276 -0.29557 38314 ft 466 kts 227°
2026-04-27 12:32 64.82873 -0.40588 38297 ft 456 kts 239°
2026-04-27 12:32 64.78881 -0.52236 38291 ft 465 kts 229°
2026-04-27 12:33 64.74287 -0.62859 38271 ft 460 kts 237°
2026-04-27 12:33 64.70433 -0.74606 38294 ft 463 kts 232°
2026-04-27 12:34 64.65717 -0.84994 38302 ft 464 kts 232°
2026-04-27 12:34 64.61813 -0.96798 38265 ft 460 kts 237°
2026-04-27 12:35 64.57155 -1.07314 38270 ft 467 kts 229°
2026-04-27 12:35 64.53046 -1.18785 38253 ft 459 kts 240°
2026-04-27 12:36 64.48623 -1.29562 38277 ft 470 kts 226°
2026-04-27 12:36 64.44225 -1.40527 38287 ft 460 kts 239°
2026-04-27 12:37 64.40049 -1.51839 38286 ft 469 kts 227°
2026-04-27 12:37 64.35334 -1.62160 38296 ft 461 kts 236°
2026-04-27 12:38 64.31454 -1.73752 38303 ft 464 kts 231°
2026-04-27 12:38 64.26617 -1.83763 38291 ft 465 kts 230°
2026-04-27 12:39 64.22600 -1.95188 38243 ft 458 kts 240°
2026-04-27 12:39 64.20498 -2.00747 38273 ft 466 kts 229°
2026-04-27 12:39 64.18031 -2.05647 38262 ft 470 kts 225°
2026-04-27 12:40 64.13574 -2.16354 38275 ft 459 kts 240°
2026-04-27 12:40 64.09411 -2.27512 38276 ft 470 kts 226°
2026-04-27 12:41 64.04560 -2.37494 38260 ft 462 kts 234°
2026-04-27 12:41 64.00691 -2.48921 38243 ft 462 kts 232°
2026-04-27 12:42 63.95818 -2.58685 38214 ft 467 kts 228°
2026-04-27 12:42 63.91682 -2.69720 38228 ft 455 kts 240°
2026-04-27 12:43 63.87170 -2.80024 38276 ft 467 kts 225°
2026-04-27 12:43 63.82646 -2.90299 38299 ft 454 kts 239°
2026-04-27 12:44 63.78541 -3.01121 38263 ft 465 kts 226°
2026-04-27 12:44 63.73655 -3.10703 38212 ft 460 kts 233°
2026-04-27 12:45 63.69750 -3.21889 38211 ft 457 kts 233°
2026-04-27 12:45 63.64878 -3.31369 38214 ft 464 kts 227°
2026-04-27 12:46 63.60670 -3.42028 38229 ft 452 kts 240°
2026-04-27 12:46 63.56284 -3.52232 38249 ft 465 kts 224°
2026-04-27 12:47 63.51507 -3.61841 38250 ft 456 kts 236°
2026-04-27 12:47 63.47556 -3.72889 38242 ft 461 kts 229°
2026-04-27 12:48 63.42529 -3.82008 38225 ft 464 kts 227°
2026-04-27 12:48 63.38449 -3.92772 38207 ft 451 kts 240°
2026-04-27 12:48 63.36396 -3.98033 38250 ft 460 kts 228°
2026-04-27 12:49 63.33893 -4.02596 38246 ft 467 kts 223°
2026-04-27 12:49 63.29113 -4.12225 38258 ft 457 kts 237°
2026-04-27 12:50 63.25082 -4.23205 38245 ft 466 kts 227°
2026-04-27 12:50 63.19963 -4.32273 38210 ft 468 kts 227°
2026-04-27 12:51 63.15866 -4.42885 38111 ft 438 kts 240°
2026-04-27 12:51 63.13832 -4.47847 37772 ft 436 kts 227°
2026-04-27 12:51 63.11434 -4.51896 37391 ft 429 kts 223°
2026-04-27 12:51 63.09154 -4.55945 36975 ft 413 kts 231°
2026-04-27 12:52 63.07865 -4.58943 36685 ft 400 kts 238°
2026-04-27 12:52 63.05734 -4.65383 36115 ft 388 kts 240°
2026-04-27 12:52 63.03769 -4.69586 35536 ft 402 kts 224°
2026-04-27 12:52 63.01460 -4.73064 35051 ft 399 kts 225°
2026-04-27 12:53 62.98262 -4.79880 34152 ft 374 kts 244°
2026-04-27 12:53 62.96769 -4.84531 33562 ft 369 kts 245°
2026-04-27 12:53 62.95021 -4.88785 32907 ft 387 kts 227°
2026-04-27 12:54 62.92783 -4.92189 32295 ft 391 kts 224°
2026-04-27 12:54 62.90694 -4.95896 31652 ft 381 kts 234°
2026-04-27 12:54 62.89009 -5.00271 31005 ft 371 kts 243°
2026-04-27 12:54 62.87504 -5.04874 30329 ft 374 kts 241°
2026-04-27 12:55 62.85603 -5.08933 29498 ft 391 kts 223°
2026-04-27 12:55 62.83385 -5.12305 28739 ft 392 kts 224°
2026-04-27 12:55 62.81376 -5.16247 27938 ft 385 kts 235°
2026-04-27 12:55 62.79734 -5.20823 27133 ft 381 kts 241°
2026-04-27 12:56 62.78127 -5.25410 26486 ft 383 kts 232°
2026-04-27 12:56 62.76025 -5.29058 25838 ft 389 kts 219°
2026-04-27 12:56 62.73841 -5.32461 25227 ft 382 kts 225°
2026-04-27 12:56 62.71996 -5.36511 24572 ft 373 kts 236°
2026-04-27 12:57 62.70477 -5.41045 23923 ft 368 kts 239°
2026-04-27 12:57 62.68742 -5.45360 22334 ft 396 kts 223°
2026-04-27 12:57 62.66472 -5.48841 21265 ft 401 kts 218°
2026-04-27 12:57 62.64297 -5.52617 20261 ft 398 kts 227°
2026-04-27 12:58 62.62495 -5.57109 19432 ft 391 kts 237°
2026-04-27 12:58 62.60936 -5.61794 18690 ft 386 kts 236°
2026-04-27 12:58 62.58996 -5.65815 17860 ft 387 kts 219°
2026-04-27 12:58 62.56763 -5.69021 17103 ft 381 kts 218°
2026-04-27 12:59 62.54740 -5.72624 16345 ft 372 kts 228°
2026-04-27 12:59 62.53097 -5.76869 15610 ft 364 kts 236°
2026-04-27 12:59 62.51613 -5.81270 14873 ft 360 kts 233°
2026-04-27 12:59 62.49759 -5.84889 14158 ft 359 kts 216°
2026-04-27 13:00 62.47668 -5.87779 13393 ft 353 kts 217°
2026-04-27 13:00 62.45820 -5.91188 12657 ft 346 kts 228°
2026-04-27 13:00 62.44306 -5.95164 11940 ft 340 kts 235°
2026-04-27 13:00 62.42898 -5.99172 11633 ft 324 kts 231°
2026-04-27 13:01 62.41234 -6.02214 11463 ft 303 kts 212°
2026-04-27 13:01 62.39508 -6.04380 11093 ft 279 kts 216°
2026-04-27 13:01 62.38086 -6.06983 10700 ft 259 kts 230°
2026-04-27 13:01 62.37003 -6.09976 10500 ft 248 kts 234°
2026-04-27 13:02 62.35933 -6.12803 10383 ft 239 kts 230°
2026-04-27 13:02 62.34799 -6.15362 10142 ft 234 kts 224°
2026-04-27 13:02 62.33504 -6.17473 9843 ft 233 kts 213°
2026-04-27 13:02 62.32037 -6.18976 9537 ft 234 kts 201°
2026-04-27 13:03 62.30461 -6.19832 9233 ft 234 kts 191°
2026-04-27 13:03 62.28836 -6.20015 8931 ft 235 kts 180°
2026-04-27 13:03 62.27215 -6.19613 8638 ft 235 kts 173°
2026-04-27 13:03 62.25606 -6.19028 8359 ft 233 kts 173°
2026-04-27 13:04 62.24011 -6.18394 8074 ft 233 kts 172°
2026-04-27 13:04 62.22449 -6.17692 7801 ft 232 kts 170°
2026-04-27 13:04 62.20885 -6.16879 7522 ft 231 kts 168°
2026-04-27 13:04 62.19341 -6.15904 7251 ft 230 kts 164°
2026-04-27 13:05 62.17789 -6.15200 6970 ft 227 kts 178°
2026-04-27 13:05 62.16219 -6.15035 6700 ft 225 kts 180°
2026-04-27 13:05 62.14659 -6.14908 6418 ft 224 kts 182°
2026-04-27 13:05 62.13120 -6.15152 6131 ft 220 kts 194°
2026-04-27 13:06 62.11744 -6.16464 5831 ft 217 kts 220°
2026-04-27 13:06 62.10775 -6.18883 5547 ft 214 kts 237°
2026-04-27 13:06 62.09968 -6.21546 5281 ft 214 kts 235°
2026-04-27 13:06 62.09063 -6.24061 5000 ft 213 kts 231°
2026-04-27 13:07 62.08090 -6.26439 4718 ft 213 kts 228°
2026-04-27 13:07 62.07082 -6.28747 4446 ft 212 kts 227°
2026-04-27 13:07 62.06050 -6.30933 4189 ft 211 kts 224°
2026-04-27 13:07 62.04988 -6.33016 4140 ft 201 kts 223°
2026-04-27 13:08 62.03953 -6.35021 4112 ft 202 kts 224°
2026-04-27 13:08 62.02909 -6.37067 4119 ft 206 kts 223°
2026-04-27 13:08 62.01848 -6.39140 4131 ft 208 kts 224°
2026-04-27 13:08 62.00806 -6.41298 4137 ft 209 kts 225°
2026-04-27 13:09 61.99730 -6.43405 4158 ft 211 kts 223°
2026-04-27 13:09 61.98641 -6.45498 4166 ft 211 kts 223°
2026-04-27 13:09 61.97563 -6.47638 4172 ft 211 kts 224°
2026-04-27 13:09 61.96461 -6.49687 4171 ft 210 kts 221°
2026-04-27 13:10 61.95353 -6.51720 4139 ft 210 kts 224°
2026-04-27 13:10 61.94302 -6.53818 4100 ft 210 kts 225°
2026-04-27 13:10 61.93242 -6.55948 4101 ft 209 kts 224°
2026-04-27 13:10 61.92122 -6.57930 4109 ft 210 kts 218°
2026-04-27 13:11 61.90960 -6.59818 4077 ft 211 kts 221°
2026-04-27 13:11 61.89853 -6.61883 4002 ft 207 kts 231°
2026-04-27 13:11 61.89240 -6.64600 4004 ft 207 kts 260°
2026-04-27 13:11 61.89299 -6.67651 4018 ft 210 kts 283°
2026-04-27 13:12 61.89870 -6.70515 4035 ft 212 kts 296°
2026-04-27 13:12 61.90661 -6.73174 3980 ft 216 kts 312°
2026-04-27 13:12 61.91983 -6.74651 4025 ft 219 kts 339°
2026-04-27 13:12 61.93371 -6.75888 3981 ft 217 kts 319°
2026-04-27 13:13 61.94171 -6.78464 4055 ft 208 kts 288°
2026-04-27 13:13 61.94668 -6.81325 4129 ft 202 kts 293°
2026-04-27 13:13 61.95337 -6.83816 4038 ft 188 kts 299°
2026-04-27 13:13 61.95943 -6.86113 3967 ft 168 kts 294°
2026-04-27 13:14 61.96453 -6.88258 3943 ft 159 kts 295°
2026-04-27 13:14 61.96977 -6.90286 3913 ft 155 kts 295°
2026-04-27 13:14 61.97477 -6.92256 3922 ft 151 kts 295°
2026-04-27 13:14 61.97969 -6.94222 4021 ft 153 kts 295°
2026-04-27 13:15 61.98477 -6.96226 3995 ft 155 kts 295°
2026-04-27 13:15 61.98999 -6.98295 3722 ft 159 kts 295°
2026-04-27 13:15 61.99520 -7.00358 3471 ft 158 kts 295°
2026-04-27 13:15 62.00035 -7.02413 3196 ft 155 kts 295°
2026-04-27 13:16 62.00543 -7.04434 2942 ft 153 kts 295°
2026-04-27 13:16 62.01043 -7.06405 2701 ft 153 kts 295°
2026-04-27 13:16 62.01541 -7.08405 2455 ft 152 kts 294°
2026-04-27 13:16 62.02037 -7.10395 2213 ft 152 kts 295°
2026-04-27 13:17 62.02536 -7.12375 1957 ft 152 kts 295°
2026-04-27 13:17 62.03020 -7.14300 1726 ft 144 kts 295°
2026-04-27 13:17 62.03482 -7.16147 1472 ft 138 kts 295°
2026-04-27 13:17 62.03914 -7.17891 1256 ft 129 kts 294°
2026-04-27 13:18 62.04327 -7.19558 1046 ft 127 kts 296°
2026-04-27 13:18 62.04752 -7.21237 861 ft 129 kts 297°
2026-04-27 13:18 62.05168 -7.22920 642 ft 129 kts 297°
2026-04-27 13:18 62.05593 -7.24609 411 ft 131 kts 296°
2026-04-27 13:19 62.06006 -7.26312 249 ft 123 kts 297°
2026-04-27 13:19 62.06330 -7.27625 285 ft 69 kts 299°
2026-04-27 13:19 62.06449 -7.28084 280 ft 20 kts 299°
2026-04-27 13:19 62.06495 -7.28151 279 ft 3 kts 15°
2026-04-27 13:20 62.06518 -7.28134 279 ft 0 kts 19°
2026-04-27 13:20 62.06531 -7.28124 278 ft 5 kts 21°
2026-04-27 13:21 62.06580 -7.28088 277 ft 9 kts 12°
2026-04-27 13:21 62.06609 -7.28086 277 ft 0 kts 357°
2026-04-27 13:21 62.06621 -7.28088 277 ft 4 kts 357°
2026-04-27 13:22 62.06667 -7.28108 277 ft 9 kts 342°
2026-04-27 13:22 62.06712 -7.28207 277 ft 6 kts 305°
2026-04-27 13:22 62.06733 -7.28241 277 ft 3 kts 344°
2026-04-27 13:22 62.06741 -7.28240 277 ft 2 kts
2026-04-27 13:23 62.06749 -7.28227 277 ft 2 kts 43°
2026-04-27 13:23 62.06751 -7.28217 281 ft 0 kts 57°